Regional Weather Roundup
Issued by NWS

Home | Current Version | Previous Version | Text Only | Print | Product List | Glossary Off
Versions: 1 2 3 4 5 6 7 8 9 10 11 12 13 14 15 16 17 18 19 20 21 22 23 24 25 26 27 28 29 30 31 32 33 34 35 36 37 38 39 40 41 42 43 44 45 46 47 48 49 50

000
ASUS43 KOAX 240002
RWRNE

WEATHER ROUNDUP FOR NEBRASKA
NATIONAL WEATHER SERVICE OMAHA NE
700 PM CDT TUE SEP 23 2014

NOTES: SATELLITE DATA IS BEING USED TO AUGMENT CLOUD COVER ABOVE
       12000 FEET.
       "FAIR" INDICATES FEW OR NO CLOUDS BELOW 12,000 FEET WITH NO
       SIGNIFICANT WEATHER AND/OR OBSTRUCTIONS TO VISIBILITY.

  * THESE STATIONS DO NOT REPORT WEATHER SUCH AS RAIN...SNOW OR FOG.

NEZ001>004-019>022-054>056-240100-
NEBRASKA PANHANDLE

CITY           SKY/WX    TMP DP  RH WIND       PRES   REMARKS
SCOTTSBLUFF    MOCLDY    80  46  30 N16G22    30.01R
6HR MIN TEMP:  77; 6HR MAX TEMP:  86;

ALLIANCE       PTCLDY    78  48  34 N10       29.99R
6HR MIN TEMP:  78; 6HR MAX TEMP:  85;

CHADRON        CLOUDY    73  59  61 SE3       29.95S
6HR MIN TEMP:  70; 6HR MAX TEMP:  78;

KIMBALL        MOCLDY    77  41  27 NW12G18   30.06S
SIDNEY         PTCLDY    77  45  32 NW7       30.04R
6HR MIN TEMP:  77; 6HR MAX TEMP:  86;

$$

NEZ057>060-069>072-079>082-240100-
SOUTHWEST NEBRASKA

CITY           SKY/WX    TMP DP  RH WIND       PRES   REMARKS
NORTH PLATTE   MOCLDY    76  59  55 S8        29.92R
6HR MIN TEMP:  75; 6HR MAX TEMP:  84;

IMPERIAL       PTCLDY    82  44  26 W9        29.96S
6HR MIN TEMP:  81; 6HR MAX TEMP:  87;

LEXINGTON      CLEAR     75  62  62 SE14      29.95R
MCCOOK         PTCLDY    78  58  49 SE5       29.94S
6HR MIN TEMP:  73; 6HR MAX TEMP:  85;

OGALLALA       CLEAR     81  50  33 N6        29.95S
$$

NEZ005>010-023>029-035>040-094-240100-
NORTH CENTRAL NEBRASKA

CITY           SKY/WX    TMP DP  RH WIND       PRES   REMARKS
VALENTINE      CLEAR     76  58  53 E5        29.90S
6HR MIN TEMP:  69; 6HR MAX TEMP:  78; 6HR PCP: TRACE;

AINSWORTH      MOCLDY    67  60  78 SE13      29.92S
BROKEN BOW     MOCLDY    70  57  63 N6        29.97R
6HR MIN TEMP:  68; 6HR MAX TEMP:  78;

O`NEILL        LGT RAIN  64  60  87 SE13G18   29.97R
ORD            LGT RAIN  66  59  78 SE13      29.95F
6HR MIN TEMP:  63; 6HR MAX TEMP:  73; 6HR PCP:  0.01;

THEDFORD       CLOUDY    76  55  49 NW3       29.94F
$$

NEZ041-046>049-061>064-073>077-083>087-240100-
SOUTH CENTRAL NEBRASKA

CITY           SKY/WX    TMP DP  RH WIND       PRES   REMARKS
GRAND ISLAND   CLEAR     67  57  70 S14       30.01F
6HR MIN TEMP:  66; 6HR MAX TEMP:  70;

AURORA         PTCLDY    65  56  72 SE15      30.02S
HASTINGS       PTCLDY    66  55  67 SE13G22   30.01S
6HR MIN TEMP:  66; 6HR MAX TEMP:  68;

HEBRON         CLOUDY    65  56  71 SE15G25   30.02F
HOLDREGE       CLEAR     70  58  65 SE13      29.97S
KEARNEY *      PTCLDY    68  57  68 SE13      30.00R
YORK           MOCLDY    64  57  77 S14G21    30.04S
$$

NEZ011>018-030>034-042>045-240100-
NORTHEAST NEBRASKA

CITY           SKY/WX    TMP DP  RH WIND       PRES   REMARKS
NORFOLK        CLOUDY    63  57  81 SE15G23   30.03S
6HR MIN TEMP:  62; 6HR MAX TEMP:  68;

ALBION         MOCLDY    64  55  73 S13G22    30.02S
BLAIR          CLOUDY    65  52  62 S16G22    30.09S
COLUMBUS *     CLOUDY    63  55  77 S12       30.06S
FREMONT        CLOUDY    63  52  67 SE14      30.08F
TEKAMAH        CLOUDY    66  52  60 S15       30.08R
6HR MIN TEMP:  59; 6HR MAX TEMP:  71; 6HR PCP:  0.02;

WAYNE          CLOUDY    64  54  70 S17G23    30.05S
$$

NEZ050>053-065>068-078-088>093-240100-
SOUTHEAST NEBRASKA

CITY           SKY/WX    TMP DP  RH WIND       PRES   REMARKS
LINCOLN        CLOUDY    63  54  72 SE16G24   30.06F
6HR MIN TEMP:  61; 6HR MAX TEMP:  70;

OMAHA EPPLEY   CLOUDY    66  53  63 S21       30.09F
6HR MIN TEMP:  64; 6HR MAX TEMP:  73;

BEATRICE       CLOUDY    62  57  83 SE15G21   30.06F
FALLS CITY     TSTM      63  63 100 S8        30.15R
6HR MIN TEMP:  62; 6HR MAX TEMP:  73;

NEBRASKA CITY  CLOUDY    61  55  78 SE9       30.11F
PLATTSMOUTH    CLOUDY    63  55  75 SE9G17    30.10F
$$

NEZ044-045-051>053-067-240100-
OMAHA AREA

CITY           SKY/WX    TMP DP  RH WIND       PRES   REMARKS
OMAHA EPPLEY   CLOUDY    66  53  63 S21       30.09F
6HR MIN TEMP:  64; 6HR MAX TEMP:  73;

BLAIR          CLOUDY    65  52  62 S16G22    30.09S
FREMONT        CLOUDY    63  52  67 SE14      30.08F
MILLARD        CLOUDY    65  54  68 SE13G21   30.09S
OFFUTT AFB     MOCLDY    65  59  81 SE18      30.10F
PLATTSMOUTH    CLOUDY    63  55  75 SE9G17    30.10F
WAHOO          CLOUDY    61  52  71 SE17      30.08S
$$


USA.gov is the U.S. government's official web portal to all federal, state and local government web resources and services.